Location: Ab? ar R?sh Ba?r?
(24.1861°N, 32.8847°E)
Time: 07:08:06
(UTC+00:00)

Cosmos 839 Rocket - Visible Passes

Search period start: 21 May 2022 00:00
Search period end: 31 May 2022 00:00
Orbit: 969 x 2084 km, 65.9° (Epoch: 20 May)

Date Brightness Start Highest point End Pass type
(mag) Time Alt. Az. Time Alt. Az. Time Alt. Az.
21 May 4.7 00:16:13 10° NNW 00:23:03 66° ENE 00:31:38 10° SSE visible
21 May 5.8 02:18:41 10° WNW 02:22:59 16° WSW 02:27:48 10° SW visible
21 May 5.5 23:34:44 10° N 23:41:08 40° ENE 23:48:53 10° SE visible
22 May 5.3 01:35:01 10° NW 01:41:02 28° WSW 01:48:16 10° SSW visible
22 May 6.2 22:53:44 10° N 22:59:07 24° ENE 23:04:16 13° ESE visible
23 May 4.7 00:52:20 10° NW 00:59:05 48° WSW 01:00:30 44° SW visible
23 May 6.7 22:13:44 10° NNE 22:16:56 13° ENE 22:20:23 10° E visible
24 May 4.4 00:10:09 10° NNW 00:17:01 78° W 00:17:01 78° W visible
24 May 4.8 23:28:21 10° NNW 23:34:37 63° NE 23:34:37 63° NE visible
25 May 6.3 01:30:39 10° WNW 01:31:07 11° WNW 01:31:07 11° WNW visible
25 May 5.5 22:46:54 10° N 22:52:41 38° NE 22:52:41 38° NE visible
26 May 5.9 00:47:05 10° NW 00:49:12 19° WNW 00:49:12 19° WNW visible
26 May 6.1 22:05:54 10° N 22:10:59 23° ENE 22:10:59 23° ENE visible
27 May 5.6 00:04:26 10° NW 00:07:31 28° NW 00:07:31 28° NW visible
27 May 6.6 21:25:58 10° NNE 21:29:06 13° ENE 21:29:27 13° ENE visible
27 May 5.4 23:22:17 10° NNW 23:26:01 37° NNW 23:26:01 37° NNW visible
28 May 5.4 22:40:30 10° NNW 22:44:37 39° N 22:44:37 39° N visible
29 May 5.7 21:59:03 10° N 22:03:20 32° NNE 22:03:20 32° NNE visible
29 May 6.4 23:59:09 10° NW 23:59:53 13° NW 23:59:53 13° NW visible
30 May 6.2 21:18:05 10° N 21:22:06 22° NE 21:22:06 22° NE visible
30 May 6.0 23:16:33 10° NW 23:18:41 22° NW 23:18:41 22° NW visible
